Meteo Giornale » Osservazioni meteo Stati Uniti (USA) » Mullan Pass
ore: 05:53 - Osservazioni Meteo Mullan Pass
Lat. 47° 27' N Lon. 115° 40' W Alt. 1829 metri s.l.m.
16 °C
Sereno
Temp. 24 Ore
8 °C
20 °C
Nord
5.5 Km/h
Dew point -1 °C
Umidità 31 %
Visibilità 10 Km
Il sole sorge alle ore 06:02
Il sole tramonta alle ore 19:23
| Data e Ora | Cielo e Fenomeni | T °C | DP °C | Um. % | Pres. hPa | Vis. km | Vento km/h | |
|---|---|---|---|---|---|---|---|---|
| Oggi h: 05:53 | Sereno | 16 | -1 | 31 | 1016 | 10 | N 5.5 | |
| Oggi h: 04:53 | Sereno | 15 | -1 | 33 | 1016 | 10 | S 7.4 | |
| Oggi h: 03:53 | Sereno | 14 | -1 | 35 | 1016 | 10 | S/SE 11.1 | |
| Oggi h: 02:53 | Sereno | 14 | 0 | 38 | 1016 | 10 | S/SE 11.1 | |
| Oggi h: 01:53 | Sereno | 14 | 0 | 38 | 1016 | 10 | S/SE 9.3 | |
| Oggi h: 00:53 | Sereno | 14 | 0 | 38 | 1016 | 10 | SE 7.4 | |
| Ieri h: 23:53 | Sereno | 15 | 0 | 35 | 1017 | 10 | SE 7.4 | |
| Ieri h: 22:53 | Sereno | 15 | 0 | 35 | 1017 | 10 | N 5.5 | |
| Ieri h: 21:53 | Sereno | 16 | 0 | 33 | 1017 | 10 | N 0 | |
| Ieri h: 20:53 | Sereno | 16 | 1 | 36 | 1018 | 10 | N 0 | |
| Ieri h: 19:53 | Sereno | 16 | 1 | 36 | 1018 | 10 | N 0 | |
| Ieri h: 18:53 | Sereno | 17 | 1 | 33 | 1018 | 10 | N 5.5 | |
| Ieri h: 17:53 | Sereno | 18 | 1 | 31 | 1018 | 10 | N 0 | |
| Ieri h: 16:53 | Sereno | 19 | 1 | 29 | 1018 | 10 | N 5.5 | |
| Ieri h: 15:53 | Sereno | 20 | 1 | 28 | 1019 | 10 | N 5.5 | |
| Ieri h: 14:53 | Sereno | 19 | 1 | 29 | 1019 | 10 | N 7.4 | |
| Ieri h: 13:53 | Sereno | 19 | 1 | 29 | 1019 | 10 | N 5.5 | |
| Ieri h: 12:53 | Sereno | 17 | 0 | 31 | 1020 | 10 | N 0 | |
| Ieri h: 11:53 | Sereno | 15 | -1 | 33 | 1020 | 10 | N 0 | |
| Ieri h: 10:53 | Sereno | 15 | 0 | 35 | 1020 | 10 | N 0 | |
| Ieri h: 09:53 | Sereno | 12 | -1 | 40 | 1020 | 10 | N 5.5 | |
| Ieri h: 08:53 | Sereno | 11 | -2 | 40 | 1020 | 10 | N 0 | |
| Ieri h: 07:53 | Sereno | 9 | -1 | 49 | 1020 | 10 | N 5.5 | |
| Ieri h: 06:53 | Sereno | 8 | -2 | 49 | 1020 | 10 | S/SE 7.4 | |



